Location: Advent Pentecost Church
(32.7757°N, 96.7408°W)
Time: 03:31:03
(UTC+00:00)

N. Korean satellite - Visible Passes

Search period start: 21 October 2021 00:00
Search period end: 31 October 2021 00:00
Orbit: 450 x 495 km, 97.3° (Epoch: 20 October)

Date Brightness Start Highest point End Pass type
(mag) Time Alt. Az. Time Alt. Az. Time Alt. Az.
21 Oct 6.5 11:45:21 10° N 11:48:59 72° WNW 11:52:35 10° SSW visible
22 Oct 8.0 11:17:27 10° NNE 11:20:55 41° E 11:24:20 10° S visible
23 Oct 9.7 10:50:18 10° NE 10:52:44 17° E 10:55:08 10° SE visible
24 Oct 6.7 11:54:21 10° N 11:57:53 52° WNW 12:01:23 10° SSW visible
25 Oct 7.3 11:26:15 10° NNE 11:29:50 57° E 11:33:21 10° S visible
26 Oct 9.2 10:58:47 10° NE 11:01:39 22° E 11:04:30 10° SSE visible
27 Oct 7.0 12:03:19 10° N 12:06:43 38° WNW 12:10:02 10° SW visible
28 Oct 10.6 00:08:44 10° WSW 00:09:29 11° W 00:10:14 10° W visible
28 Oct 6.7 11:35:02 10° NNE 11:38:39 79° ESE 11:42:12 10° S visible
29 Oct 8.7 11:07:18 10° NE 11:10:29 29° E 11:13:37 10° SSE visible
30 Oct 10.1 10:40:45 10° ENE 10:42:11 12° E 10:43:38 10° ESE visible
30 Oct 7.4 12:12:17 10° NNW 12:15:25 28° WNW 12:18:31 10° SW visible
